STARLINK-1063, 44768

Orbit data source: Space-Track

STARLINK-1063, 44768 is a payload satellite owned by SpaceX/Seattle (US) in LEO that was launched on Mon, 11 Nov 2019 UTC via an FALCON 9 launch vehicle from the Air Force Eastern Test Range (AFETR). Payload-class satellites include a variety of spacecraft equipped with specific instruments for various scientific and technological missions. These include communications satellites like Starlink; space stations such as the ISS; scientific satellites like the Hubble; Earth observation satellites from companies like Planet Labs, Umbra, and HawkEye 360; GPS; miniature CubeSats for education and research; and military/defense satellites.

Loading next visibility...
Identifier
44768, 2019-074BH
Orbit
LEO
Country
Flag of USUS
Related business
Manufacturer
SpaceX/Seattle
Mission
Partially operational Commercial Communications
Bus & Motor
STARLINK, Unknown motor
Mass
260 kg wet, ~248 kg dry
Launch date (UTC)
2019-11-11 (7 years ago)
Launch vehicle
FALCON 9
Launch site
Air Force Eastern Test Range (AFETR)
Object type
Payload
Rocket body
Debris
Shape & HBR
Box + 1 Pan, 10.1 m
Radar Cross Section
13.562 m², Large (>1 m²)

Expand to show TLE details & history
Last TLE update: 6 hours ago

TLE from 6 hours ago
0 STARLINK-1063
1 44768U 19074BH  26258.59110156  .00069008  00000-0  78887-3 0  9995
2 44768  53.1500  33.3364 0000948 200.3705 159.7272 15.61558735377720
Epoch: 2026-09-15T14:11Z
TLE epoch observation values (Epoch: 2026-09-15T14:11:11.174Z)
Latitude
-0°
Longitude
-174.01501°
Altitude
384.666 km
Speed
7.68 km/s
True Right ascension
02h 13m 20s
True Declination
0° 00' 00"
Sunlit
Object was in full shadow at epoch
Visualization orbit readout
Latitude
Unknown
Longitude
Unknown
Altitude
Unknown
Speed
Unknown
Apparent Right ascension
Unknown
Apparent Declination
Unknown
Sunlit
N/A
Visualization observer readout
Local Sidereal Time
12:24:56
Azimuth
Unknown
Elevation
Unknown
Doppler factor
Unknown
Orbital elements
Apogee altitude
384.056 km
Perigee altitude
382.774 km
Semi-major axis
6,761.552 km
Eccentricity
0.00009
Inclination
53.15°
RAAN
33.3364°
Arg. of periapsis
200.3705°
True anomaly
159.73096°
Mean anomaly
159.7272°
Eccentric anomaly
159.72908°
Mean motion
3.90367 °/min
Orbital period
92.22 mins
BSTAR
0.00078887
Loading maneuver chart data...
Computing Atmospheric mass density...

Documentation

Showing up to 5 results
|